ONEWEB-0141 (47287 NORAD) Tracking and Keplerian Element Data

This shows tracking and keplerian element data for the satellite.

Feedback or suggestion? Click here.




ElementValue
Catalog47287
NameONEWEB-0141
Epoch Orbit176
Epoch Day99.91667824
Epoch Year2021
RAAN7.3263
Inclination87.961
Eccentricity0.0001222
Argument of Perigee103.3421
Mean Anonmoly199.1005
Mean Motion13.2907429
Decay Rate1.3E-07
L11 47287U 20100AF 21099.91667824 .00000013 00000-0 00000-0 0 9999
L22 47287 87.9610 7.3263 0001222 103.3421 199.1005 13.29074290 1769

Live tracking and technical data element details for ONEWEB-0141 (NORAD 47287). ONEWEB-0141 can be tracked NOW for your location showing map with azimuth and elevation plus other details from your city location.

Track the satellite on the map from your city or location and see movement details for azimuth, elevation, latitude, longitude, range, height, and movement on the map or in text.







IsCatalogInMostPopularTable: catalog: 47287, numindb: 34
Update: records affected: 1



GetName: 47287 ONEWEB-0141

Hit Count: updated at: Sat, 10 Apr 2021 19:21:06 GMT